Weather History for KUDG - March, 2013

Change the Weather History Date:

Wednesday, March 13, 2013

  Actual Average (KFLO) Record (KFLO)
Temperature  
Mean Temperature 50 °F 55 °F  
Max Temperature 62 °F 67 °F 88 °F (1990)
Min Temperature 37 °F 43 °F 21 °F (1998)
Degree Days  
Heating Degree Days 16 11  
Month to date heating degree days 158  
Since 1 July heating degree days 2224  
Cooling Degree Days 0 0  
Month to date cooling degree days 0  
Year to date cooling degree days 6  
Moisture  
Dew Point 30 °F    
Average Humidity 53    
Maximum Humidity 81    
Minimum Humidity 25    
Precipitation  
Precipitation 0.00 in 0.11 in 1.93 in (1977)
Month to date precipitation 1.45  
Year to date precipitation 7.60  
Sea Level Pressure  
Sea Level Pressure 30.05 in    
Wind  
Wind Speed 8 mph (WNW)    
Max Wind Speed 20 mph    
Max Gust Speed 29 mph    
Visibility 10 miles    
Events      
T = Trace of Precipitation, MM = Missing Value Source: NWS Daily Summary

Daily Weather History Graph

Daily Weather History Graph

Search for Another Location

Airport or City:

Trip Planner

Search our weather history database for the weather conditions in past years. The results will help you decide how hot, cold, wet, or windy it might be!

Date:

Astronomy

Mar. 13, 2013 Rise Set
Actual Time 7:32 AM EDT 7:25 PM EDT
Civil Twilight 7:07 AM EDT 7:50 PM EDT
Nautical Twilight 6:38 AM EDT 8:20 PM EDT
Astronomical Twilight 6:09 AM EDT 8:49 PM EDT
Moon 8:17 AM EDT (3/13) 9:32 PM EDT (3/13)
Length of Visible Light 12h 43m
Length of Day
11h 53m
Waxing Crescent, 4% of the Moon is Illuminated
Mar 13
Waxing Crescent
Mar 19
First Quarter
Mar 27
Full
Apr 3
Last Quarter
Apr 10
New

Hourly Weather History & Observations

Time (EDT) Temp. Windchill Dew Point Humidity Pressure Visibility Wind Dir Wind Speed Gust Speed Precip Events Conditions
12:15 AM 53.6 °F - 35.6 °F 51% 29.97 in 10.0 mi North 9.2 mph - N/A   Clear
12:35 AM 53.6 °F - 33.8 °F 47% 29.97 in 10.0 mi North 9.2 mph - N/A   Clear
12:55 AM - - - N/A% 29.97 in 10.0 mi NNW 6.9 mph - N/A   Clear
1:15 AM - - - N/A% 29.98 in 10.0 mi NNW 10.4 mph - N/A   Clear
1:55 AM - - - N/A% 30.00 in 10.0 mi NNW 8.1 mph - N/A   Clear
2:15 AM 50.0 °F - 33.8 °F 54% 30.01 in 10.0 mi NNW 6.9 mph - N/A   Clear
2:35 AM 48.2 °F - 33.8 °F 58% 30.01 in 10.0 mi WNW 3.5 mph - N/A   Clear
2:55 AM 48.2 °F - 32.0 °F 54% 30.02 in 10.0 mi NW 4.6 mph - N/A   Clear
3:15 AM 46.4 °F 44.3 °F 32.0 °F 57% 30.01 in 10.0 mi NW 4.6 mph - N/A   Clear
3:35 AM 44.6 °F 41.4 °F 32.0 °F 61% 30.02 in 10.0 mi WNW 5.8 mph - N/A   Clear
3:55 AM 44.6 °F 41.4 °F 32.0 °F 61% 30.02 in 10.0 mi NNW 5.8 mph - N/A   Clear
4:15 AM 44.6 °F 40.7 °F 33.8 °F 66% 30.02 in 10.0 mi NW 6.9 mph - N/A   Clear
4:35 AM 44.6 °F 40.7 °F 32.0 °F 61% 30.03 in 10.0 mi NW 6.9 mph - N/A   Clear
4:55 AM 42.8 °F 38.6 °F 32.0 °F 66% 30.03 in 10.0 mi NW 6.9 mph - N/A   Clear
5:15 AM 42.8 °F 41.1 °F 32.0 °F 66% 30.04 in 10.0 mi NW 3.5 mph - N/A   Clear
5:35 AM 42.8 °F - 30.2 °F 61% 30.05 in 10.0 mi Calm Calm - N/A   Clear
5:55 AM 42.8 °F - 32.0 °F 66% 30.06 in 10.0 mi Calm Calm - N/A   Clear
6:15 AM 39.2 °F 37.0 °F 32.0 °F 75% 30.06 in 10.0 mi WNW 3.5 mph - N/A   Clear
6:35 AM 39.2 °F 37.0 °F 32.0 °F 75% 30.07 in 10.0 mi NW 3.5 mph - N/A   Clear
6:55 AM 39.2 °F 37.0 °F 32.0 °F 75% 30.08 in 10.0 mi NW 3.5 mph - N/A   Clear
7:15 AM 37.4 °F - 30.2 °F 75% 30.08 in 10.0 mi Calm Calm - N/A   Clear
7:35 AM 39.2 °F - 30.2 °F 70% 30.09 in 10.0 mi Calm Calm - N/A   Clear
7:55 AM 39.2 °F - 32.0 °F 75% 30.09 in 10.0 mi Calm Calm - N/A   Clear
8:15 AM 39.2 °F - 33.8 °F 81% 30.10 in 10.0 mi Calm Calm - N/A   Clear
8:35 AM 42.8 °F - 33.8 °F 70% 30.11 in 10.0 mi Calm Calm - N/A   Clear
8:55 AM 44.6 °F - 35.6 °F 71% 30.11 in 10.0 mi Calm Calm - N/A   Clear
9:15 AM 46.4 °F 44.3 °F 33.8 °F 62% 30.11 in 10.0 mi NW 4.6 mph - N/A   Clear
9:35 AM 48.2 °F - 33.8 °F 58% 30.11 in 10.0 mi NW 3.5 mph - N/A   Clear
9:55 AM 51.8 °F - 30.2 °F 44% 30.11 in 10.0 mi NNW 6.9 mph - N/A   Clear
10:15 AM 51.8 °F - 32.0 °F 47% 30.11 in 10.0 mi Calm Calm - N/A   Clear
10:35 AM 53.6 °F - 30.2 °F 41% 30.11 in 10.0 mi NW 4.6 mph - N/A   Clear
10:55 AM - - - N/A% 30.10 in 10.0 mi North 4.6 mph - N/A   Clear
11:15 AM - - - N/A% 30.10 in 10.0 mi West 6.9 mph - N/A   Clear
11:35 AM 55.4 °F - 30.2 °F 38% 30.10 in 10.0 mi SW 11.5 mph - N/A   Clear
11:55 AM 57.2 °F - 26.6 °F 31% 30.09 in 10.0 mi WSW 8.1 mph 16.1 mph N/A   Clear
12:15 PM - - - N/A% 30.08 in 10.0 mi West 11.5 mph 17.3 mph N/A   Clear
12:35 PM - - - N/A% 30.07 in 10.0 mi West 18.4 mph 21.9 mph N/A   Clear
12:55 PM - - - N/A% 30.06 in 10.0 mi West 11.5 mph 20.7 mph N/A   Clear
1:15 PM - - - N/A% 30.05 in 10.0 mi WSW 17.3 mph 25.3 mph N/A   Clear
1:35 PM - - - N/A% 30.04 in 10.0 mi SW 15.0 mph 21.9 mph N/A   Clear
1:55 PM - - - N/A% 30.03 in 10.0 mi West 13.8 mph 21.9 mph N/A   Clear
2:15 PM - - - N/A% 30.02 in 10.0 mi West 17.3 mph 28.8 mph N/A   Clear
2:35 PM - - - N/A% 30.01 in 10.0 mi WSW 16.1 mph 25.3 mph N/A   Scattered Clouds
2:55 PM - - - N/A% 30.00 in 10.0 mi West 13.8 mph 20.7 mph N/A   Partly Cloudy
3:15 PM - - - N/A% 29.99 in 10.0 mi West 17.3 mph 23.0 mph N/A   Clear
3:35 PM 60.8 °F - 26.6 °F 27% 29.99 in 10.0 mi West 10.4 mph - N/A   Scattered Clouds
3:55 PM 62.6 °F - 26.6 °F 26% 29.99 in 10.0 mi WSW 19.6 mph 23.0 mph N/A   Mostly Cloudy
4:15 PM - - - N/A% 29.98 in 10.0 mi West 11.5 mph 16.1 mph N/A   Scattered Clouds
4:35 PM - - - N/A% 29.98 in 10.0 mi WNW 17.3 mph 21.9 mph N/A   Partly Cloudy
4:55 PM - - - N/A% 29.98 in 10.0 mi West 10.4 mph 18.4 mph N/A   Mostly Cloudy
5:15 PM 60.8 °F - 24.8 °F 25% 29.98 in 10.0 mi West 17.3 mph 23.0 mph N/A   Mostly Cloudy
5:35 PM - - - N/A% 29.99 in 10.0 mi West 11.5 mph 21.9 mph N/A   Partly Cloudy
5:55 PM - - - N/A% 29.99 in 10.0 mi West 16.1 mph 24.2 mph N/A   Partly Cloudy
6:15 PM - - - N/A% 29.99 in 10.0 mi West 11.5 mph - N/A   Scattered Clouds
6:35 PM - - - N/A% 29.99 in 10.0 mi West 11.5 mph - N/A   Scattered Clouds
6:55 PM - - - N/A% 30.00 in 10.0 mi West 10.4 mph - N/A   Partly Cloudy
7:15 PM 55.4 °F - 26.6 °F 33% 30.01 in 10.0 mi West 6.9 mph - N/A   Partly Cloudy
7:35 PM 55.4 °F - 26.6 °F 33% 30.01 in 10.0 mi West 6.9 mph - N/A   Mostly Cloudy
7:55 PM 53.6 °F - 28.4 °F 38% 30.02 in 10.0 mi West 5.8 mph - N/A   Mostly Cloudy
8:15 PM 53.6 °F - 28.4 °F 38% 30.04 in 10.0 mi WNW 12.7 mph 17.3 mph N/A   Overcast
8:35 PM - - - N/A% 30.05 in 10.0 mi NW 17.3 mph 25.3 mph N/A   Overcast
8:55 PM - - - N/A% 30.06 in 10.0 mi NNW 13.8 mph 19.6 mph N/A   Overcast
9:15 PM - - - N/A% 30.08 in 10.0 mi NNW 13.8 mph 20.7 mph N/A   Scattered Clouds
9:35 PM - - - N/A% 30.09 in 10.0 mi NNW 12.7 mph 19.6 mph N/A   Clear
9:55 PM 48.2 °F - 21.2 °F 34% 30.10 in 10.0 mi NNW 8.1 mph - N/A   Clear
10:15 PM 46.4 °F 41.5 °F 21.2 °F 37% 30.12 in 10.0 mi NNW 10.4 mph - N/A   Clear
10:35 PM 46.4 °F 41.5 °F 21.2 °F 37% 30.13 in 10.0 mi NNW 10.4 mph - N/A   Scattered Clouds
10:55 PM - - - N/A% 30.14 in 10.0 mi NNW 12.7 mph - N/A   Partly Cloudy
11:15 PM - - - N/A% 30.14 in 10.0 mi NNW 17.3 mph 21.9 mph N/A   Clear
11:35 PM 44.6 °F 38.4 °F 17.6 °F 34% 30.15 in 10.0 mi NNW 12.7 mph - N/A   Clear
11:55 PM 44.6 °F 38.4 °F 17.6 °F 34% 30.15 in 10.0 mi NNW 12.7 mph - N/A   Clear